Weather observations for the past three days for
Belleville, Scott AFB/MidAmerica Airport
Imperial (Metric)
Date Time (cdt) Wind (mph) Vis. (mi.) Weather Sky Cond. Temperature (ºF) Relative Humidity Wind Chill (°F) Heat Index (°F) Pressure Precipitation (in)
Air Dwpt 6 hour altimeter (in) sea level (mb) 1 hr 3 hr 6 hr
Max. Min.
01 15:55 S 9 10.00 Fair CLR 98.4 69.1 39% 105 29.97 1014.7
01 14:55 S 3 10.00 Fair CLR 99.1 68.2 37% 105 29.98 1015.0
01 13:55 SW 6 10.00 Fair CLR 98.1 70.9 42% 106 30 1015.7
01 12:55 W 6 10.00 Fair CLR 96.3 72.7 96.3 71.6 47% 106 30.02 1016.4
01 11:55 W 6 10.00 Fair CLR 94.8 72.5 49% 104 30.03 1016.7
01 10:55 W 8 10.00 Fair CLR 92.7 74.1 55% 103 30.04 1017.0
01 09:55 W 9 10.00 Fair CLR 87.4 74.1 65% 96 30.04 1017.1
01 08:55 SW 5 10.00 Fair CLR 83.1 75.4 78% 91 30.05 1017.4
01 07:55 S 5 10.00 Fair CLR 77.2 75.6 95% 78 30.05 1017.5
01 06:55 Calm 10.00 Fair CLR 71.6 70.7 76.5 71.4 97% 30.03 1016.8
01 05:55 Calm 9.00 Fair CLR 72.5 71.8 98% 30.02 1016.4
01 04:55 S 3 10.00 Fair CLR 72.5 71.6 97% 30.01 1016.0
01 03:55 S 5 10.00 Fair CLR 72.9 72.1 98% 30 1015.7
01 02:55 S 3 10.00 Fair CLR 74.3 73.6 98% 30 1015.7
01 01:55 S 3 10.00 Fair CLR 75.9 74.3 95% 75 29.99 1015.3
01 00:55 Calm 10.00 Fair CLR 76.3 72.7 89.2 76.3 89% 77 30 1015.7
31 23:55 SW 6 10.00 Fair CLR 79.3 72.5 80% 83 29.99 1015.3
31 22:55 SW 6 10.00 Fair CLR 79.5 72 78% 83 29.99 1015.4
31 21:55 SW 7 10.00 Fair CLR 80.1 72.1 77% 84 29.99 1015.4
31 20:55 S 3 10.00 Fair CLR 82.4 72.9 73% 88 29.98 1015.1
31 19:55 S 6 10.00 Fair CLR 85.1 72.3 66% 91 29.96 1014.4
31 17:55 S 12 10.00 Fair CLR 94.3 72.1 49% 103 29.96 1014.4
31 16:55 S 12 10.00 Fair CLR 96.8 70.5 43% 104 29.96 1014.4
31 15:55 SW 10 10.00 Fair CLR 97.7 67.6 38% 103 29.96 1014.4
31 14:55 SW 8 10.00 Fair CLR 98.2 68.2 38% 104 29.97 1014.7
31 13:55 SW 13 10.00 Fair CLR 96.8 67.6 39% 102 29.99 1015.4
31 12:55 SW 10 10.00 A Few Clouds FEW200 95.5 70 95.5 66.6 44% 102 30.02 1016.4
31 10:55 SW 13 10.00 A Few Clouds FEW200 89.1 68.5 51% 93 30.04 1017.1
31 09:55 SW 12 10.00 A Few Clouds FEW200 87.1 67.8 53% 90 30.04 1017.1
31 08:55 S 5 10.00 A Few Clouds FEW200 79.7 70.2 73% 83 30.04 1017.1
31 07:55 Calm 10.00 A Few Clouds FEW200 73.2 70 90% 30.03 1016.8
31 06:55 Calm 10.00 A Few Clouds FEW250 67.3 66.4 70.3 65.7 97% 30 1015.8
31 05:55 S 5 10.00 Fair CLR 66.4 65.5 97% 30 1015.8
31 04:55 Calm 10.00 Fair CLR 68.2 67.3 97% 30 1015.8
31 03:55 S 5 10.00 Fair CLR 68.5 67.6 97% 29.98 1015.1
31 02:55 S 3 10.00 Fair CLR 68.7 67.8 97% 29.98 1015.1
31 01:55 S 5 10.00 Fair CLR 68 67.1 97% 29.99 1015.4
31 00:55 Calm 10.00 Fair CLR 70 67.3 84.2 70 91% 30 1015.8
30 23:55 Calm 9.00 Fair CLR 71.1 68.5 92% 29.98 1015.1
30 22:55 Calm 10.00 Fair CLR 72.7 67.5 84% 29.98 1015.1
30 21:55 Calm 10.00 Fair CLR 73.4 67.1 81% 29.98 1015.1
30 20:55 Calm 10.00 Fair CLR 76.3 66.2 71% 78 29.98 1015.1
30 19:55 Calm 10.00 Fair CLR 79.5 64.8 61% 81 29.97 1014.8
30 18:55 S 6 10.00 Fair CLR 84.4 66.4 93.7 84.4 55% 87 29.97 1014.8
30 17:55 S 7 10.00 Fair CLR 88.5 64.9 46% 90 29.97 1014.8
30 16:55 S 9 10.00 Fair CLR 91.2 64.2 41% 93 29.97 1014.8
30 15:55 S 14 10.00 Fair CLR 92.7 61.7 36% 93 29.97 1014.7
30 14:55 S 10 10.00 Fair CLR 93.6 64 38% 95 29.99 1015.4
30 13:55 S 6 10.00 Fair CLR 92.1 65.7 42% 95 30.01 1016.1
30 12:55 SW 7 10.00 Fair CLR 90.5 66.7 90.5 64.8 46% 94 30.02 1016.5
30 11:55 W 8 10.00 Fair CLR 88.3 66.7 49% 91 30.04 1017.1
30 10:55 SW 8 10.00 Fair CLR 86.2 67.5 54% 89 30.04 1017.1
30 09:55 SW 9 10.00 Fair CLR 82 70.3 68% 86 30.04 1017.2
30 08:55 S 7 7.00 A Few Clouds FEW200 75.7 71.6 87% 76 30.03 1016.9
30 07:55 S 5 10.00 Partly Cloudy SCT200 70.7 69.8 97% 30.04 1017.2
30 06:55 S 3 10.00 A Few Clouds FEW250 64.6 63.7 68.5 64.2 97% 30.03 1016.9
30 05:55 Calm 10.00 Fair CLR 65.5 64.6 97% 30.02 1016.5
30 04:55 S 3 10.00 Fair CLR 67.6 66.7 97% 30.01 1016.2
30 03:55 Calm 10.00 Fair CLR 66.4 65.5 97% 30.02 1016.5
30 02:55 Calm 10.00 Fair CLR 68 67.1 97% 30.03 1016.8
30 01:55 Calm 10.00 Fair CLR 67.1 66.2 97% 30.03 1016.8
30 00:55 Calm 10.00 Fair CLR 67.5 66.6 82.4 67.1 97% 30.03 1016.8
29 23:55 Calm 10.00 Fair CLR 70 68.7 96% 30.03 1016.8
29 22:55 Calm 10.00 A Few Clouds FEW250 71.4 68.5 91% 30.03 1016.8
29 21:55 Calm 10.00 Partly Cloudy SCT250 72.9 69.1 88% 30.03 1016.9
29 20:55 S 3 10.00 Partly Cloudy SCT250 74.1 68.5 83% 30.02 1016.6
29 19:55 S 6 10.00 Partly Cloudy SCT250 76.6 68 75% 78 30 1015.9
29 18:55 S 7 10.00 Partly Cloudy SCT180 82.8 69.3 88.3 82.8 64% 86 30.02 1016.6
29 17:55 S 6 10.00 Fair CLR 84.4 67.5 57% 87 30.02 1016.6
29 16:55 S 8 10.00 Fair CLR 85.5 66.4 53% 88 30.03 1016.9
Date Time (cdt) Wind (mph) Vis. (mi.) Weather Sky Cond. Air Dwpt Max. Min. Relative Humidity Wind Chill (°F) Heat Index (°F) altimeter (in) sea level (mb) 1 hr 3 hr 6 hr
6 hour
Temperature (ºF) Pressure Precipitation (in)